QPF
0.00 0.00 0.00 0.00 0.00 0.00 0.00 0.00 0.00 0.00 0.01 0.01 0.01 0.01 0.01 0.01 0.01 0.02 0.03 0.05 0.07 0.08 0.09 0.08 0.06 0.04 0.02 0.02 0.01 0.00 0.00 0.01 0.02 0.01 0.01 0.01 0.02 0.02 0.01 0.01 0.00 0.00 0.01
0.00 0.00 0.00 0.00 0.00 0.00 0.00 0.00 0.00 0.00 0.00 0.00 0.01 0.01 0.01 0.01 0.00 0.00 0.01 0.02 0.03 0.04 0.06 0.08 0.08 0.07 0.05 0.03 0.02 0.01 0.00 0.01 0.01 0.01 0.01 0.02 0.02 0.02 0.02 0.02 0.01 0.01 0.00
0.00 0.00 0.00 0.00 0.00 0.00 0.00 0.00 0.00 0.00 0.00 0.00 0.00 0.01 0.01 0.01 0.01 0.00 0.00 0.00 0.01 0.01 0.02 0.03 0.04 0.05 0.05 0.04 0.03 0.02 0.01 0.01 0.01 0.02 0.02 0.02 0.03 0.03 0.02 0.03 0.02 0.01 0.00
0.00 0.00 0.00 0.00 0.00 0.00 0.00 0.00 0.00 0.00 0.00 0.00 0.00 0.00 0.00 0.01 0.01 0.01 0.01 0.01 0.01 0.01 0.01 0.01 0.01 0.02 0.02 0.02 0.02 0.02 0.02 0.02 0.02 0.03 0.03 0.03 0.04 0.03 0.03 0.03 0.03 0.02 0.01
0.00 0.00 0.00 0.00 0.00 0.00 0.00 0.00 0.00 0.00 0.00 0.00 0.00 0.00 0.00 0.00 0.00 0.00 0.01 0.01 0.01 0.01 0.01 0.01 0.01 0.01 0.01 0.01 0.01 0.01 0.02 0.02 0.02 0.03 0.03 0.04 0.04 0.04 0.03 0.02 0.01 0.02 0.02
0.00 0.00 0.00 0.00 0.00 0.00 0.00 0.00 0.00 0.00 0.00 0.00 0.00 0.00 0.00 0.00 0.00 0.00 0.00 0.00 0.00 0.01 0.01 0.01 0.01 0.01 0.01 0.01 0.01 0.01 0.01 0.01 0.02 0.02 0.02 0.03 0.03 0.02 0.02 0.01 0.01 0.01 0.02
0.00 0.00 0.00 0.00 0.00 0.00 0.00 0.00 0.00 0.00 0.00 0.00 0.00 0.00 0.00 0.00 0.00 0.00 0.00 0.00 0.00 0.00 0.01 0.01 0.01 0.02 0.02 0.02 0.01 0.01 0.01 0.01 0.01 0.02 0.02 0.02 0.02 0.02 0.02 0.02 0.01 0.01 0.01
0.00 0.00 0.01 0.01 0.01 0.01 0.01 0.01 0.01 0.01 0.00 0.00 0.00 0.00 0.00 0.00 0.00 0.00 0.00 0.00 0.00 0.00 0.01 0.01 0.01 0.02 0.02 0.02 0.02 0.02 0.01 0.01 0.02 0.02 0.02 0.03 0.03 0.03 0.04 0.03 0.03 0.02 0.01
0.00 0.01 0.01 0.02 0.03 0.03 0.03 0.02 0.02 0.02 0.01 0.01 0.00 0.00 0.00 0.00 0.00 0.00 0.00 0.00 0.00 0.01 0.01 0.01 0.02 0.03 0.04 0.04 0.03 0.03 0.02 0.02 0.02 0.03 0.04 0.05 0.06 0.05 0.05 0.05 0.04 0.03 0.02
0.02 0.03 0.03 0.04 0.05 0.05 0.04 0.03 0.03 0.02 0.01 0.01 0.01 0.00 0.00 0.00 0.00 0.00 0.00 0.00 0.01 0.01 0.01 0.02 0.03 0.05 0.06 0.05 0.04 0.04 0.04 0.03 0.03 0.03 0.05 0.07 0.07 0.07 0.06 0.04 0.02 0.02 0.02
0.03 0.04 0.04 0.05 0.06 0.06 0.06 0.04 0.03 0.02 0.01 0.01 0.00 0.00 0.00 0.00 0.00 0.00 0.00 0.00 0.01 0.03 0.03 0.04 0.05 0.07 0.08 0.07 0.06 0.05 0.06 0.06 0.05 0.05 0.05 0.06 0.06 0.07 0.05 0.04 0.02 0.01 0.01
0.04 0.04 0.04 0.05 0.05 0.06 0.05 0.04 0.04 0.03 0.02 0.01 0.00 0.00 0.00 0.00 0.00 0.00 0.00 0.00 0.02 0.04 0.04 0.06 0.07 0.09 0.10 0.10 0.08 0.08 0.10 0.10 0.09 0.08 0.06 0.06 0.06 0.06 0.05 0.04 0.03 0.02 0.02
0.05 0.05 0.05 0.05 0.05 0.05 0.05 0.04 0.04 0.03 0.02 0.01 0.01 0.00 0.00 0.00 0.00 0.00 0.00 0.01 0.03 0.04 0.06 0.08 0.12 0.15 0.15 0.13 0.13 0.13 0.12 0.11 0.11 0.09 0.07 0.05 0.04 0.04 0.04 0.04 0.03 0.02 0.02
0.06 0.05 0.04 0.05 0.05 0.05 0.05 0.04 0.03 0.03 0.03 0.02 0.01 0.01 0.01 0.00 0.00 0.00 0.01 0.02 0.03 0.06 0.09 0.12 0.18 0.22 0.22 0.19 0.18 0.17 0.14 0.14 0.13 0.09 0.07 0.06 0.04 0.04 0.04 0.03 0.03 0.02 0.01
0.06 0.05 0.05 0.06 0.06 0.05 0.04 0.04 0.04 0.03 0.03 0.02 0.02 0.02 0.02 0.01 0.00 0.00 0.01 0.02 0.04 0.08 0.13 0.18 0.23 0.27 0.28 0.25 0.22 0.21 0.19 0.18 0.15 0.10 0.08 0.07 0.05 0.05 0.04 0.03 0.03 0.02 0.01
0.07 0.06 0.07 0.07 0.05 0.04 0.04 0.04 0.03 0.02 0.02 0.02 0.02 0.02 0.01 0.01 0.01 0.01 0.01 0.02 0.06 0.11 0.18 0.22 0.25 0.29 0.29 0.27 0.26 0.25 0.22 0.18 0.14 0.11 0.08 0.07 0.05 0.03 0.03 0.03 0.02 0.02 0.01
0.06 0.06 0.06 0.05 0.05 0.05 0.05 0.05 0.05 0.03 0.02 0.02 0.01 0.01 0.01 0.01 0.01 0.02 0.02 0.04 0.08 0.15 0.23 0.26 0.28 0.31 0.29 0.26 0.24 0.23 0.20 0.16 0.13 0.11 0.08 0.06 0.04 0.02 0.02 0.02 0.01 0.01 0.01
0.05 0.05 0.05 0.04 0.04 0.04 0.04 0.04 0.03 0.03 0.03 0.02 0.01 0.01 0.01 0.01 0.02 0.03 0.04 0.06 0.11 0.18 0.25 0.29 0.29 0.28 0.28 0.26 0.23 0.21 0.17 0.14 0.12 0.10 0.08 0.05 0.04 0.02 0.01 0.01 0.01 0.01 0.00
0.04 0.04 0.04 0.02 0.02 0.02 0.02 0.02 0.02 0.02 0.02 0.02 0.01 0.01 0.02 0.02 0.03 0.05 0.07 0.10 0.16 0.22 0.27 0.29 0.28 0.26 0.26 0.24 0.21 0.18 0.14 0.11 0.09 0.08 0.06 0.04 0.03 0.01 0.01 0.00 0.00 0.00 0.00
0.05 0.05 0.04 0.02 0.01 0.01 0.01 0.01 0.01 0.01 0.01 0.01 0.01 0.02 0.02 0.04 0.05 0.06 0.08 0.13 0.19 0.23 0.25 0.26 0.26 0.24 0.22 0.19 0.16 0.14 0.11 0.09 0.07 0.05 0.04 0.02 0.02 0.01 0.01 0.00 0.00 0.00 0.00
0.06 0.05 0.04 0.02 0.01 0.01 0.01 0.01 0.01 0.00 0.00 0.01 0.01 0.02 0.03 0.05 0.06 0.07 0.10 0.15 0.20 0.22 0.22 0.21 0.21 0.20 0.17 0.13 0.11 0.10 0.08 0.05 0.04 0.03 0.02 0.01 0.01 0.01 0.00 0.00 0.00 0.00 0.00
0.07 0.05 0.03 0.02 0.01 0.01 0.01 0.00 0.00 0.00 0.00 0.01 0.01 0.02 0.03 0.05 0.06 0.08 0.11 0.16 0.17 0.16 0.16 0.14 0.14 0.12 0.09 0.07 0.06 0.06 0.04 0.03 0.02 0.01 0.01 0.01 0.00 0.00 0.00 0.00 0.00 0.00 0.00
0.07 0.05 0.03 0.01 0.01 0.01 0.01 0.00 0.00 0.00 0.01 0.01 0.01 0.02 0.03 0.04 0.05 0.07 0.10 0.12 0.12 0.12 0.11 0.09 0.07 0.06 0.04 0.03 0.03 0.03 0.01 0.01 0.01 0.00 0.00 0.00 0.00 0.00 0.00 0.00 0.00 0.00 0.00
0.06 0.06 0.04 0.01 0.01 0.00 0.01 0.01 0.00 0.00 0.01 0.01 0.01 0.01 0.02 0.03 0.04 0.05 0.07 0.08 0.08 0.07 0.06 0.04 0.03 0.02 0.01 0.01 0.01 0.01 0.00 0.00 0.00 0.00 0.00 0.00 0.00 0.00 0.00 0.00 0.00 0.00 0.00
0.04 0.05 0.05 0.03 0.01 0.00 0.00 0.00 0.00 0.00 0.00 0.01 0.01 0.01 0.01 0.02 0.03 0.05 0.06 0.06 0.05 0.04 0.03 0.02 0.01 0.01 0.00 0.00 0.00 0.00 0.00 0.00 0.00 0.00 0.00 0.00 0.00 0.00 0.00 0.00 0.00 0.00 0.00
0.03 0.03 0.02 0.02 0.01 0.00 0.00 0.00 0.00 0.00 0.00 0.00 0.00 0.00 0.01 0.02 0.03 0.04 0.05 0.04 0.03 0.02 0.01 0.01 0.00 0.00 0.00 0.00 0.00 0.00 0.00 0.00 0.00 0.00 0.00 0.00 0.00 0.00 0.00 0.00 0.00 0.00 0.00
MSLP
1010.97 1010.85 1010.77 1010.67 1010.56 1010.42 1010.28 1010.16 1010.09 1010.09 1010.17 1010.30 1010.47 1010.63 1010.74 1010.77 1010.72 1010.60 1010.43 1010.24 1010.09 1010.01 1010.00 1010.07 1010.20 1010.36 1010.52 1010.64 1010.72 1010.74 1010.74 1010.73 1010.75 1010.83 1010.98 1011.20 1011.48 1011.79 1012.09 1012.34 1012.54 1012.64 1012.66
1010.68 1010.50 1010.34 1010.17 1009.99 1009.79 1009.61 1009.47 1009.40 1009.41 1009.51 1009.68 1009.88 1010.08 1010.23 1010.32 1010.32 1010.24 1010.11 1009.96 1009.83 1009.74 1009.72 1009.76 1009.84 1009.95 1010.05 1010.12 1010.16 1010.17 1010.17 1010.19 1010.25 1010.40 1010.63 1010.95 1011.33 1011.76 1012.18 1012.55 1012.86 1013.08 1013.19
1010.36 1010.12 1009.88 1009.62 1009.35 1009.09 1008.85 1008.68 1008.59 1008.60 1008.71 1008.89 1009.12 1009.35 1009.55 1009.68 1009.73 1009.71 1009.64 1009.55 1009.46 1009.41 1009.40 1009.44 1009.50 1009.57 1009.62 1009.65 1009.65 1009.62 1009.60 1009.62 1009.70 1009.89 1010.18 1010.57 1011.05 1011.58 1012.12 1012.63 1013.06 1013.40 1013.64
1010.00 1009.69 1009.36 1009.01 1008.66 1008.32 1008.03 1007.82 1007.70 1007.70 1007.81 1008.00 1008.24 1008.49 1008.71 1008.88 1008.98 1009.02 1009.01 1008.99 1008.97 1008.98 1009.01 1009.07 1009.14 1009.19 1009.22 1009.20 1009.15 1009.09 1009.03 1009.02 1009.10 1009.29 1009.61 1010.06 1010.61 1011.23 1011.88 1012.51 1013.07 1013.55 1013.91
1009.60 1009.21 1008.80 1008.37 1007.94 1007.53 1007.19 1006.94 1006.80 1006.79 1006.88 1007.06 1007.30 1007.55 1007.78 1007.96 1008.10 1008.18 1008.24 1008.28 1008.34 1008.41 1008.51 1008.61 1008.70 1008.77 1008.78 1008.74 1008.64 1008.53 1008.42 1008.37 1008.42 1008.59 1008.92 1009.40 1010.00 1010.70 1011.45 1012.18 1012.87 1013.48 1013.97
1009.16 1008.71 1008.22 1007.72 1007.22 1006.76 1006.38 1006.10 1005.94 1005.91 1005.99 1006.15 1006.37 1006.60 1006.82 1007.00 1007.14 1007.26 1007.36 1007.46 1007.58 1007.72 1007.88 1008.04 1008.17 1008.26 1008.27 1008.21 1008.08 1007.92 1007.76 1007.66 1007.67 1007.82 1008.13 1008.62 1009.26 1010.01 1010.84 1011.67 1012.47 1013.19 1013.81
1008.69 1008.18 1007.64 1007.08 1006.54 1006.05 1005.64 1005.34 1005.17 1005.12 1005.18 1005.32 1005.50 1005.70 1005.88 1006.04 1006.18 1006.30 1006.42 1006.56 1006.74 1006.94 1007.16 1007.36 1007.54 1007.64 1007.66 1007.59 1007.44 1007.24 1007.04 1006.90 1006.87 1006.98 1007.28 1007.78 1008.44 1009.23 1010.12 1011.03 1011.92 1012.75 1013.47
1008.19 1007.64 1007.06 1006.47 1005.91 1005.40 1004.99 1004.69 1004.51 1004.44 1004.48 1004.58 1004.73 1004.88 1005.02 1005.15 1005.26 1005.36 1005.49 1005.65 1005.86 1006.10 1006.35 1006.60 1006.80 1006.92 1006.95 1006.87 1006.71 1006.49 1006.27 1006.10 1006.04 1006.14 1006.43 1006.93 1007.61 1008.44 1009.37 1010.35 1011.31 1012.22 1013.03
1007.66 1007.09 1006.49 1005.89 1005.32 1004.82 1004.41 1004.11 1003.93 1003.86 1003.88 1003.95 1004.05 1004.16 1004.25 1004.33 1004.41 1004.50 1004.61 1004.78 1004.99 1005.25 1005.52 1005.78 1005.99 1006.13 1006.16 1006.08 1005.91 1005.69 1005.46 1005.29 1005.23 1005.34 1005.64 1006.15 1006.86 1007.72 1008.69 1009.71 1010.73 1011.70 1012.57
1007.08 1006.50 1005.90 1005.31 1004.75 1004.27 1003.88 1003.59 1003.42 1003.34 1003.33 1003.38 1003.44 1003.51 1003.56 1003.61 1003.65 1003.71 1003.81 1003.97 1004.17 1004.42 1004.69 1004.95 1005.15 1005.28 1005.31 1005.23 1005.06 1004.85 1004.65 1004.50 1004.48 1004.62 1004.96 1005.51 1006.25 1007.14 1008.15 1009.20 1010.25 1011.25 1012.15
1006.43 1005.86 1005.27 1004.70 1004.17 1003.71 1003.34 1003.07 1002.90 1002.82 1002.80 1002.83 1002.87 1002.90 1002.93 1002.95 1002.97 1003.01 1003.10 1003.23 1003.42 1003.65 1003.89 1004.12 1004.30 1004.40 1004.42 1004.34 1004.20 1004.02 1003.86 1003.77 1003.81 1004.01 1004.42 1005.03 1005.81 1006.75 1007.78 1008.85 1009.91 1010.91 1011.82
1005.71 1005.14 1004.58 1004.04 1003.54 1003.11 1002.76 1002.51 1002.35 1002.27 1002.24 1002.26 1002.28 1002.30 1002.32 1002.32 1002.34 1002.37 1002.44 1002.56 1002.72 1002.91 1003.11 1003.29 1003.43 1003.51 1003.51 1003.44 1003.32 1003.19 1003.10 1003.10 1003.23 1003.53 1004.02 1004.70 1005.55 1006.52 1007.57 1008.64 1009.70 1010.68 1011.57
1004.92 1004.37 1003.83 1003.32 1002.85 1002.45 1002.13 1001.90 1001.75 1001.67 1001.65 1001.65 1001.67 1001.69 1001.71 1001.72 1001.73 1001.76 1001.82 1001.91 1002.04 1002.18 1002.33 1002.46 1002.56 1002.60 1002.59 1002.53 1002.45 1002.39 1002.39 1002.49 1002.74 1003.15 1003.75 1004.51 1005.42 1006.43 1007.49 1008.56 1009.59 1010.54 1011.39
1004.10 1003.56 1003.05 1002.57 1002.13 1001.77 1001.48 1001.26 1001.13 1001.05 1001.03 1001.03 1001.05 1001.07 1001.09 1001.11 1001.13 1001.16 1001.20 1001.27 1001.36 1001.45 1001.54 1001.62 1001.67 1001.68 1001.66 1001.63 1001.60 1001.62 1001.73 1001.96 1002.33 1002.87 1003.57 1004.42 1005.39 1006.43 1007.49 1008.54 1009.53 1010.44 1011.24
1003.29 1002.77 1002.28 1001.83 1001.43 1001.10 1000.84 1000.65 1000.53 1000.46 1000.44 1000.44 1000.46 1000.48 1000.50 1000.51 1000.53 1000.55 1000.58 1000.61 1000.65 1000.70 1000.74 1000.76 1000.77 1000.77 1000.76 1000.76 1000.81 1000.93 1001.15 1001.50 1002.01 1002.66 1003.47 1004.40 1005.41 1006.47 1007.53 1008.55 1009.50 1010.35 1011.10
1002.55 1002.05 1001.58 1001.17 1000.82 1000.52 1000.30 1000.13 1000.03 999.97 999.94 999.94 999.95 999.96 999.96 999.96 999.96 999.95 999.95 999.94 999.94 999.94 999.93 999.92 999.91 999.90 999.92 999.98 1000.12 1000.34 1000.68 1001.16 1001.79 1002.55 1003.44 1004.43 1005.47 1006.54 1007.58 1008.56 1009.46 1010.26 1010.96
1001.93 1001.44 1001.01 1000.64 1000.33 1000.09 999.90 999.77 999.68 999.63 999.61 999.59 999.58 999.57 999.54 999.51 999.46 999.42 999.36 999.31 999.26 999.22 999.18 999.15 999.14 999.16 999.22 999.36 999.59 999.92 1000.38 1000.97 1001.70 1002.55 1003.50 1004.52 1005.57 1006.62 1007.63 1008.56 1009.41 1010.16 1010.82
1001.43 1000.97 1000.58 1000.26 1000.01 999.82 999.68 999.59 999.54 999.50 999.47 999.44 999.40 999.34 999.27 999.19 999.09 998.98 998.88 998.77 998.68 998.60 998.54 998.51 998.52 998.59 998.72 998.95 999.27 999.72 1000.28 1000.97 1001.78 1002.69 1003.67 1004.69 1005.72 1006.73 1007.69 1008.58 1009.37 1010.08 1010.71
1001.05 1000.62 1000.28 1000.02 999.84 999.72 999.64 999.60 999.58 999.55 999.53 999.48 999.40 999.30 999.18 999.03 998.87 998.70 998.54 998.38 998.25 998.15 998.09 998.08 998.13 998.26 998.48 998.80 999.23 999.77 1000.42 1001.18 1002.04 1002.97 1003.95 1004.95 1005.94 1006.89 1007.79 1008.61 1009.36 1010.04 1010.64
1000.77 1000.38 1000.09 999.90 999.78 999.73 999.72 999.74 999.76 999.76 999.74 999.68 999.59 999.44 999.27 999.06 998.84 998.61 998.39 998.19 998.04 997.93 997.88 997.90 998.01 998.21 998.52 998.93 999.44 1000.07 1000.79 1001.59 1002.47 1003.39 1004.34 1005.29 1006.21 1007.09 1007.92 1008.69 1009.39 1010.03 1010.62
1000.56 1000.21 999.97 999.83 999.79 999.81 999.87 999.94 1000.01 1000.05 1000.05 1000.00 999.88 999.71 999.50 999.25 998.97 998.70 998.44 998.22 998.05 997.94 997.92 997.99 998.16 998.43 998.81 999.31 999.89 1000.58 1001.34 1002.16 1003.02 1003.91 1004.80 1005.68 1006.52 1007.32 1008.07 1008.78 1009.43 1010.04 1010.62
1000.39 1000.07 999.87 999.79 999.80 999.89 1000.01 1000.14 1000.26 1000.35 1000.38 1000.34 1000.23 1000.05 999.82 999.55 999.25 998.95 998.67 998.44 998.27 998.19 998.19 998.31 998.53 998.87 999.31 999.86 1000.50 1001.22 1001.99 1002.80 1003.62 1004.46 1005.28 1006.07 1006.82 1007.54 1008.22 1008.86 1009.46 1010.04 1010.61
1000.26 999.96 999.79 999.74 999.80 999.92 1000.10 1000.28 1000.45 1000.58 1000.64 1000.64 1000.55 1000.39 1000.17 999.90 999.61 999.31 999.04 998.82 998.66 998.60 998.64 998.79 999.06 999.44 999.93 1000.51 1001.17 1001.89 1002.64 1003.42 1004.19 1004.96 1005.69 1006.40 1007.07 1007.70 1008.30 1008.88 1009.45 1010.00 1010.54
1000.19 999.90 999.74 999.70 999.77 999.92 1000.12 1000.34 1000.54 1000.71 1000.82 1000.85 1000.81 1000.69 1000.50 1000.26 999.99 999.72 999.47 999.27 999.15 999.11 999.17 999.35 999.65 1000.05 1000.55 1001.14 1001.80 1002.49 1003.21 1003.94 1004.65 1005.34 1006.00 1006.62 1007.21 1007.76 1008.30 1008.83 1009.34 1009.86 1010.37
1000.24 999.94 999.77 999.72 999.78 999.92 1000.12 1000.35 1000.57 1000.76 1000.90 1000.98 1000.98 1000.90 1000.76 1000.58 1000.36 1000.13 999.92 999.75 999.65 999.64 999.72 999.92 1000.22 1000.62 1001.12 1001.69 1002.32 1002.98 1003.65 1004.32 1004.97 1005.58 1006.16 1006.71 1007.23 1007.72 1008.20 1008.67 1009.14 1009.62 1010.10
1000.46 1000.13 999.93 999.84 999.87 999.98 1000.15 1000.36 1000.57 1000.77 1000.93 1001.04 1001.08 1001.06 1000.98 1000.84 1000.68 1000.50 1000.34 1000.21 1000.14 1000.15 1000.24 1000.44 1000.73 1001.12 1001.59 1002.13 1002.71 1003.32 1003.94 1004.55 1005.13 1005.69 1006.20 1006.68 1007.14 1007.57 1008.00 1008.42 1008.85 1009.29 1009.73
Thickness
5608 5604 5600 5598 5595 5592 5590 5590 5590 5590 5590 5591 5594 5597 5600 5605 5609 5614 5619 5624 5630 5636 5641 5647 5652 5657 5660 5662 5664 5667 5670 5672 5673 5676 5678 5679 5679 5678 5677 5676 5674 5674 5673
5594 5589 5585 5582 5579 5575 5574 5574 5573 5573 5573 5574 5575 5577 5581 5585 5590 5594 5600 5607 5613 5619 5626 5632 5639 5645 5650 5653 5656 5660 5663 5667 5668 5670 5671 5672 5672 5671 5669 5667 5666 5664 5664
5581 5576 5572 5569 5565 5563 5562 5562 5560 5559 5559 5559 5559 5560 5563 5567 5571 5576 5581 5588 5595 5602 5610 5617 5624 5631 5638 5643 5647 5652 5656 5660 5663 5665 5666 5666 5666 5664 5662 5659 5657 5656 5656
5569 5563 5560 5558 5555 5554 5552 5551 5550 5549 5548 5548 5548 5548 5549 5551 5554 5559 5563 5569 5577 5585 5593 5602 5610 5618 5626 5632 5638 5643 5648 5652 5656 5659 5660 5661 5660 5658 5656 5653 5649 5648 5647
5556 5551 5548 5546 5545 5543 5542 5542 5541 5541 5541 5540 5539 5539 5539 5540 5542 5545 5549 5554 5560 5568 5577 5586 5595 5605 5614 5622 5629 5635 5640 5645 5650 5653 5655 5656 5655 5652 5650 5647 5644 5640 5638
5542 5538 5535 5533 5531 5531 5531 5531 5531 5532 5532 5532 5533 5533 5534 5536 5537 5538 5540 5542 5546 5553 5561 5571 5581 5592 5603 5611 5619 5627 5634 5639 5644 5648 5651 5652 5652 5650 5647 5643 5640 5637 5632
5529 5524 5521 5518 5518 5519 5520 5520 5521 5523 5524 5525 5526 5528 5529 5531 5532 5532 5534 5535 5537 5542 5548 5556 5568 5581 5590 5601 5610 5619 5627 5634 5640 5646 5649 5651 5650 5649 5644 5639 5636 5634 5631
5517 5511 5507 5504 5503 5504 5505 5507 5510 5512 5514 5518 5520 5522 5523 5525 5527 5527 5529 5530 5532 5535 5539 5546 5556 5567 5578 5589 5599 5609 5619 5627 5634 5640 5646 5649 5649 5646 5643 5639 5633 5627 5622
5504 5498 5494 5490 5489 5489 5491 5494 5497 5500 5504 5508 5512 5515 5517 5520 5522 5523 5524 5525 5527 5530 5534 5539 5547 5557 5568 5578 5590 5601 5611 5620 5627 5634 5639 5642 5642 5641 5638 5632 5627 5624 5617
5495 5489 5484 5480 5478 5478 5479 5482 5485 5489 5494 5500 5504 5508 5511 5514 5517 5518 5519 5520 5522 5526 5529 5534 5541 5549 5559 5569 5581 5594 5604 5614 5621 5626 5630 5633 5634 5633 5633 5632 5629 5624 5618
5488 5482 5478 5474 5471 5470 5471 5473 5476 5480 5485 5491 5496 5502 5505 5508 5511 5514 5515 5516 5519 5522 5526 5531 5537 5544 5552 5562 5574 5587 5599 5607 5614 5620 5624 5626 5626 5626 5626 5626 5625 5624 5620
5483 5478 5473 5469 5466 5466 5465 5466 5469 5472 5478 5483 5488 5494 5499 5503 5507 5510 5512 5514 5516 5519 5523 5528 5533 5540 5547 5556 5567 5580 5589 5598 5607 5614 5618 5621 5622 5622 5621 5620 5618 5617 5617
5480 5474 5470 5466 5463 5461 5461 5462 5464 5467 5472 5478 5483 5489 5494 5498 5502 5505 5508 5511 5513 5516 5521 5524 5529 5536 5543 5551 5561 5572 5582 5593 5603 5610 5615 5618 5619 5618 5615 5613 5610 5608 5607
5478 5473 5469 5465 5462 5461 5460 5460 5462 5465 5469 5475 5480 5486 5490 5494 5498 5503 5506 5509 5512 5515 5518 5521 5526 5531 5539 5548 5557 5567 5579 5591 5600 5607 5610 5611 5612 5611 5610 5609 5605 5603 5599
5478 5473 5469 5466 5463 5462 5461 5462 5463 5467 5470 5474 5479 5483 5488 5493 5498 5501 5504 5507 5510 5512 5515 5518 5523 5529 5536 5545 5555 5566 5577 5586 5594 5600 5604 5606 5607 5606 5604 5603 5602 5599 5597
5481 5476 5472 5468 5466 5464 5464 5465 5466 5468 5471 5474 5477 5481 5487 5491 5495 5498 5501 5503 5504 5506 5510 5516 5521 5527 5535 5544 5553 5564 5574 5583 5591 5596 5600 5603 5604 5603 5600 5598 5597 5597 5594
5484 5479 5476 5472 5470 5468 5468 5468 5470 5471 5473 5475 5477 5481 5485 5490 5493 5496 5497 5499 5501 5503 5508 5515 5521 5527 5535 5544 5553 5563 5572 5580 5587 5592 5596 5598 5599 5598 5597 5595 5594 5592 5590
5489 5485 5482 5478 5476 5474 5473 5473 5473 5475 5477 5478 5479 5482 5485 5488 5492 5494 5495 5497 5500 5503 5510 5516 5522 5529 5537 5545 5553 5562 5569 5576 5582 5587 5591 5593 5594 5594 5592 5591 5589 5588 5586
5496 5492 5488 5484 5482 5480 5479 5478 5478 5479 5480 5480 5481 5483 5485 5488 5491 5492 5495 5500 5504 5508 5512 5518 5524 5530 5537 5546 5554 5561 5568 5573 5578 5583 5586 5587 5589 5589 5588 5586 5585 5580 5582
5503 5500 5496 5492 5489 5487 5486 5485 5484 5484 5484 5484 5485 5485 5487 5490 5494 5495 5497 5502 5507 5512 5516 5521 5526 5532 5540 5547 5554 5560 5566 5570 5574 5578 5581 5582 5583 5584 5583 5582 5581 5580 5580
5511 5506 5504 5499 5496 5494 5492 5491 5490 5489 5489 5488 5488 5488 5489 5494 5497 5499 5501 5506 5511 5515 5520 5525 5530 5536 5543 5549 5556 5561 5565 5568 5571 5575 5576 5577 5578 5578 5578 5578 5578 5577 5576
5519 5514 5510 5506 5503 5501 5499 5498 5496 5495 5495 5494 5493 5493 5493 5498 5501 5504 5507 5511 5515 5520 5525 5530 5536 5541 5547 5553 5558 5562 5565 5567 5570 5572 5574 5574 5575 5575 5575 5574 5574 5573 5572
5527 5523 5518 5514 5511 5508 5507 5505 5503 5501 5501 5500 5500 5499 5501 5504 5507 5510 5514 5517 5521 5526 5530 5536 5541 5546 5550 5555 5559 5563 5566 5568 5570 5572 5572 5572 5572 5572 5572 5572 5571 5571 5571
5534 5530 5526 5522 5518 5515 5513 5511 5508 5507 5506 5506 5506 5506 5508 5511 5514 5518 5521 5524 5528 5533 5537 5541 5546 5550 5554 5558 5561 5565 5568 5569 5570 5571 5573 5573 5572 5572 5571 5571 5571 5571 5570
5540 5537 5533 5528 5525 5522 5519 5517 5515 5514 5513 5513 5513 5514 5516 5519 5522 5526 5529 5532 5536 5540 5544 5549 5552 5556 5559 5562 5564 5567 5568 5570 5571 5572 5573 5573 5572 5571 5571 5571 5570 5569 5569
5545 5542 5538 5534 5531 5528 5526 5524 5522 5520 5520 5519 5520 5522 5524 5527 5530 5534 5537 5540 5544 5548 5551 5554 5558 5561 5563 5565 5567 5568 5569 5570 5571 5573 5574 5574 5573 5572 5571 5571 5570 5569 5568